Costco Locations

Featuring Select Jennifer Adams Products
Dates of events are subject to change


Start Date End Date Costco # Warehouse Name Address
10/04/2019 10/13/2019 483 SE San Diego 650 Gateway Center Dr, San Diego CA 92102-4530
10/11/2019 10/20/2019 1317 Eastvale 5030 HAMNER AVE, EASTVALE CA 91752-1009
10/11/2019 10/20/2019 1318 Monterey Park 2000 MARKET PLACE DR, MONTEREY PARK CA 91755-7402
10/11/2019 10/20/2019 431 NW Tucson 3901 W Costco Dr, Tucson AZ 85741-2864
10/11/2019 10/20/2019 1014 E Colorado Springs 5885 Barnes Rd, Colorado Springs CO 80922-3512
10/11/2019 10/20/2019 1080 San Marcos 725 Center Drive, San Marcos CA 92069-3536
10/25/2019 11/03/2019 130 Los Feliz 2901 Los Feliz Blvd, Los Angeles CA 90039-1502
10/25/2019 11/03/2019 418 Fullerton 900 S Harbor Blvd, Fullerton CA 92832-3098
10/25/2019 11/03/2019 428 Alhambra 2207 W Commonwealth Ave, Alhambra CA 91803-1302
10/25/2019 11/03/2019 460 Rancho Del Rey 895 E H St, Chula Vista CA 91910-7807
10/25/2019 11/03/2019 116 Albuquerque 1420 N Renaissance Blvd Ne, Albuquerque NM 87107-6811
11/01/2019 11/10/2019 465 Thomas Road 4502 East Oak Street, Phoenix AZ 85008-2411
11/01/2019 11/10/2019 644 SE Gilbert 2887 S Market St, Gilbert AZ 85295-1303
11/01/2019 11/10/2019 738 Cave Creek 2450 E Beardsley Rd, Phoenix AZ 85050-1300
11/08/2019 11/17/2019 117 Westlake Village 5700 Lindero Canyon Rd, Westlake Village CA 91362-4063
11/08/2019 11/17/2019 128 Simi Valley 2660 PARK CENTER DR, SIMI VALLEY CA 93065-6207
11/08/2019 11/17/2019 690 Laguna Marketplace 27220 Heather Ridge Rd, Laguna Niguel CA 92677-3418
11/08/2019 11/21/2019 439 Aurora 1471 South Havana St., Aurora CO 80012-4013
11/08/2019 11/21/2019 673 Henderson 791 Marks St, Henderson NV 89014-8601
11/08/2019 11/21/2019 1027 Sheridan 4000 River Point Pkwy, Sheridan CO 80110-3316
11/11/2019 11/21/2019 407 Tucson 6255 East Grant Road, Tucson AZ 85712-5834
11/11/2019 11/21/2019 436 Tempe 1445 West Elliot Road, Tempe AZ 85284-1103
11/11/2019 11/21/2019 466 Prescott 3911 Highway 69, Prescott AZ 86301-6717
12/02/2019 12/12/2019 480 Superior 600 Marshall Rd, Superior CO 80027-9730
12/04/2019 12/15/2019 401 Morena 4605 Morena Blvd, San Diego CA 92117-3650
12/04/2019 12/15/2019 452 Carmel Mountain 12350 Carmel Mountain Rd, San Diego CA 92128-4697
12/06/2019 12/15/2019 777 La Habra 101 N Beach Blvd, La Habra CA 90631-4468
12/06/2019 12/15/2019 1015 San Dimas 520 N Lone Hill Ave, San Dimas CA 91773-1725
12/06/2019 12/15/2019 1050 Lakewood 340 Lakewood Center Mall, Lakewood CA 90712-2409
12/09/2019 12/24/2019 685 Summerlin 801 S Pavilion Center Dr, Las Vegas NV 89144-4566
12/13/2019 12/24/2019 124 Vista 1755 Hacienda Dr, Vista CA 92081-4546
12/13/2019 12/24/2019 443 SW Denver 7900 W Quincy Ave, Littleton CO 80123-1350
12/13/2019 12/24/2019 481 Gilbert 1415 North Arizona Avenue, Gilbert AZ 85233-1616
12/13/2019 12/24/2019 629 Thornton 16375 Washington St, Thornton CO 80023-8907
12/13/2019 12/24/2019 665 Phoenix 1646 W. Montebello, Phoenix AZ 85015-2557
12/13/2019 12/24/2019 736 Chandler 595 S Galleria Way, Chandler AZ 85226-4932
12/13/2019 12/24/2019 1022 Parker 18414 Cottonwood Dr, Parker CO 80138-8876
12/13/2019 12/24/2019 1058 Paradise Valley 4570 E Cactus Rd, Phoenix AZ 85032-7702
12/13/2019 12/24/2019 1079 SW Tucson 1650 E Tucson Marketplace Blvd, Tucson AZ 85713-6561
12/20/2019 12/29/2019 28 Laguna Niguel 27972 Cabot Rd, Laguna Niguel CA 92677-1211
12/20/2019 12/29/2019 424 Signal Hill 2200 E WILLOW ST, SIGNAL HILL CA 90755-2132
12/20/2019 12/29/2019 671 Hawthorne 14501 HINDRY AVENUE, HAWTHORNE CA 90250-6748
12/27/2019 01/05/2020 440 Westminster CO 6400 W 92nd Ave, Westminster CO 80031-2952
12/27/2019 01/05/2020 491 Temecula 26610 Ynez Rd, Temecula CA 92591-4697
12/27/2019 01/05/2020 775 Poway 12155 Tech Center Drive, Poway CA 92064-7156
Start Date End Date Costco # Warehouse Name Address
09/03/2019 09/15/2019 151 Markham 1 Yorktech Dr, Markham ON L6G 1A6
09/03/2019 09/15/2019 156 E Edmonton 13650 50 St NW, Edmonton AB T5A 4Y3
09/03/2019 09/15/2019 257 Sudbury 1465 Kingsway, Sudbury ON P3B 0A5
09/03/2019 09/15/2019 527 Marche Central 1015 Rue du Marche Central, Montreal QC H4N 1J4
09/03/2019 09/15/2019 536 Chicoutimi 2500 Boul Talbot Rr4, Chicoutimi QC G7H 5B1
09/03/2019 09/15/2019 552 Vancouver BC 605 Expo Blvd, Vancouver BC V6B 1V4
09/17/2019 09/29/2019 154 N Edmonton 12450 149 St NW, Edmonton AB T5V 1G9
09/17/2019 09/29/2019 159 Ajax 150 Kingston Rd E, Ajax ON L1Z 1E5
09/17/2019 09/29/2019 164 Red Deer 162 Leva Ave, Red Deer AB T4E 0A5
09/17/2019 09/29/2019 514 Sherbrooke 3400 King Ouest, Sherbrooke QC J1L 1C9
09/17/2019 09/29/2019 532 Boucherville 635 Chemin De Touraine, Boucherville QC J4B 5E4
09/17/2019 09/29/2019 548 Willingdon 4500 Still Creek Dr, Burnaby BC V5C 0E5
09/17/2019 09/29/2019 1265 Orillia 625 UNIVERSITY AVE, ORILLIA ON L3V 0Y7
10/01/2019 10/13/2019 59 Kelowna 2479 Highway 97 N, Kelowna BC V1X 4J2
10/01/2019 10/13/2019 254 Grande Prairie 9901 116 St, Grande Prairie AB T8V 5W3
10/01/2019 10/13/2019 556 Candiac 60 Rue Strasbourg, Candiac QC J5R 0B4
10/01/2019 10/13/2019 1128 Oshawa 130 RITSON RD NORTH, OSHAWA ON L1G 0A6
10/01/2019 10/13/2019 1270 Nisku 2584 46TH AVE EAST, EDMONTON INTERNATIONAL AIRPORT AB T9E 1K2
10/16/2019 10/27/2019 56 N Calgary 2853 32 St NE, Calgary AB T1Y 6T7
10/15/2019 10/27/2019 505 Laval 2999 Autoroute Laval 440 Ouest, Laval QC H7P 5P4
10/15/2019 10/27/2019 524 Etobicoke 50 Queen Elizabeth Blvd, Etobicoke ON M8Z 1M1
10/15/2019 10/27/2019 1112 W Edmonton 7259 Winterburn Rd NW, Edmonton AB T5T 4K2
10/15/2019 10/27/2019 1168 Guelph 19 ELMIRA RD S, GUELPH ON N1K 0B6
10/15/2019 10/27/2019 1186 Levis 1160 rue de la Concorde, Levis QC G6W 0M4
10/29/2019 11/10/2019 516 Sainte-Foy 3233 Watt, Quebec QC G1X 4W2
10/29/2019 11/10/2019 1069 Okotoks 202-104 Southbank Blvd, Okotoks AB T1S 0K4
10/29/2019 11/10/2019 1090 Fredericton 25 Wayne Squibb Blvd, Fredericton NB E3C 0G8
10/29/2019 11/10/2019 1169 C Mississauga 1570 Dundas ste, Mississauga ON L4X 1L4
10/29/2019 11/10/2019 1217 E Calgary 75 East Hills Blvd SE, Calgary AB T2A 6J8
10/29/2019 11/10/2019 1316 Thorncliffe Park 42 OVERLEA BLVD, TORONTO ON M4H 1B6
11/12/2019 11/24/2019 544 Sherwood Park 2201 Broadmoor Blvd, Sherwood Park AB T8H 0A1
11/12/2019 11/24/2019 1055 Saint John 300 Retail Drive, Saint John NB E2L 4L1
11/12/2019 11/24/2019 1127 Drummondville 105 RUE ROBERT-BERNARD, DRUMMONDVILLE QC J2C 0P6
11/12/2019 11/24/2019 1248 Waterloo 930 Erb St W, Waterloo ON N2J 3Z4
11/13/2019 11/24/2019 1296 Regina 2110 ANAQUOD ROAD, REGINA SK S4V 3T7
11/12/2019 11/24/2019 1157 St Albert 1075 St Albert Trail, St. Albert AB T8N 4K6
11/26/2019 12/08/2019 152 Saskatoon 115 Marquis Dr W, Saskatoon SK S7R 1C7
11/26/2019 12/08/2019 526 N Mississauga 5900 Rodeo Dr, Mississauga ON L5R 3S9
11/26/2019 12/08/2019 531 S Mississauga 3180 Laird Rd, Mississauga ON L5L 6A5
11/26/2019 12/08/2019 546 Boisbriand 3600 Ave Des Grandes Tourelles, Boisbriand QC J7H 0A1
11/26/2019 12/08/2019 1076 Rocky View 300-293020 Crossiron Common, Rocky View County AB T4A 0J6
11/26/2019 12/08/2019 1345 Moncton 140 GRANITE DR, MONCTON NB E1H 0K6
12/10/2019 12/22/2019 158 Prince George 2555 Range Rd, Prince George BC V2N 4G8
12/10/2019 12/22/2019 502 Saint-Hubert 5025 Boul Cousineau, Saint-Hubert QC J3Y 3K7
12/10/2019 12/22/2019 519 Halifax 230 Chain Lake Dr, Halifax NS B3S 1C5
12/10/2019 12/22/2019 534 Windsor 4411 WALKER RD, WINDSOR ON N8W 3T6
12/10/2019 12/22/2019 543 NW Calgary 11588 Sarcee Trail NW, Calgary AB T3R 0A1
12/10/2019 12/22/2019 1234 S. Saskatoon 225 Market Drive, Saskatoon SK S7V 0L2
12/10/2019 12/22/2019 1261 NW Vaughan 55 NEW HUNTINGTON RD, VAUGHAN ON L4H 0S8
12/24/2019 01/05/2020 57 W Winnipeg 1315 St James St, Winnipeg MB R3H 0K9
12/24/2019 01/05/2020 161 Kamloops 1675 Versatile Dr, Kamloops BC V1S 1W7
12/24/2019 01/05/2020 253 Burlington ON 1225 Brant St, Burlington ON L7P 1X7
12/24/2019 01/05/2020 258 S Edmonton 2616 91 St NW, Edmonton AB T6N 1N2
12/24/2019 01/05/2020 506 Anjou 7373 Rue Bombardier, Anjou QC H1J 2V2
12/24/2019 01/05/2020 523 St Catharines 3 North Service Rd, St Catharines ON L2N 7R1
12/24/2019 01/05/2020 551 Dartmouth 137 Countryview Dr, Dartmouth NS B3B 0E7